Forside
METAR-TAF:

METAR-TAF

Lufthavne :

Galesburg Municipal Airport

Galesburg, Illinois, USA

Breddekreds: 40-56-17N, længdekreds: 090-25-52W, højde: 233 m

Aktuelle vejr

Denne rapport blev lavet for 20 minutter siden, kl. 22:55 UTC
Vind stille
Temperatur 2°C
Fugtighed 80%
Tryk 1018 hPa
Sigt: 16.1 km
skyfri

METAR: KGBG 162255Z AUTO 00000KT 10SM CLR 02/M01 A3007 RMK AO2 T00151009

Tid: 17:15 (23:15 UTC)


TAF: fraværende

Vejrobservationer og prognoser fra mere end 4000 lufthavne (METAR og TAF).

De gule og røde prikker repræsenterer de meteorologiske stationer.

Flyt musen over at se navnet på stationen.

Så klik over at se vejr observationer og prognoser.

At skifte det kort: Klik på de grønne knapper med et sort kors for at zoome ind; på den grønne knap med en bindestreg for at zoome ud; eller på de grønne pile for tilstødende kort.


METAR-TAF: